Weather History for Lakehurst NAS, NJ

Change the Weather History Date:

Tuesday, December 17, 2013

  Actual Average Record
Temperature  
Mean Temperature 29 °F -  
Max Temperature 37 °F 44 °F 60 °F (1996)
Min Temperature 21 °F 33 °F 21 °F (2013)
Degree Days  
Heating Degree Days 36    
Moisture  
Dew Point 25 °F    
Average Humidity 85    
Maximum Humidity 96    
Minimum Humidity 58    
Precipitation  
Precipitation 0.00 in - - ()
Sea Level Pressure  
Sea Level Pressure 30.07 in    
Wind  
Wind Speed 1 mph (NNE)    
Max Wind Speed 7 mph    
Max Gust Speed -    
Averages and records for this station are not official NWS values.
T = Trace of Precipitation, MM = Missing Value Source: NWS Daily Summary

Daily Weather History Graph

Daily Weather History Graph

Search for Another Location

Airport:

Trip Planner

Search our weather history database for the weather conditions in past years. The results will help you decide how hot, cold, wet, or windy it might be!

Date:

Astronomy

Dec. 17, 2013 Rise Set
Actual Time 7:13 AM EST 4:33 PM EST
Civil Twilight 6:43 AM EST 5:04 PM EST
Nautical Twilight 6:09 AM EST 5:38 PM EST
Astronomical Twilight 5:35 AM EST 6:11 PM EST
Moon 5:11 PM EST (12/17) 7:08 AM EST (12/17)
Length of Visible Light 10h 21m
Length of Day
9h 20m
Full, 100% of the Moon is Illuminated
Dec 17
Full
Dec 25
Last Quarter
Jan 1
New
Jan 7
First Quarter
Jan 15
Full

Hourly Weather History & Observations

Time (EST) Temp. Windchill Dew Point Humidity Pressure Visibility Wind Dir Wind Speed Gust Speed Precip Events Conditions
12:00 AM 21.0 °F - 14.0 °F 74% 30.22 in - Calm Calm - N/A   Overcast
1:00 AM 23.0 °F - 16.0 °F 74% 30.22 in - Calm Calm - N/A   Overcast
2:00 AM 24.1 °F - 16.0 °F 71% 30.21 in - Calm Calm - N/A   Overcast
3:00 AM 25.0 °F 20.7 °F 12.9 °F 60% 30.20 in - ENE 3.5 mph - N/A   Overcast
4:00 AM 26.1 °F - 12.9 °F 58% 30.17 in - Calm Calm - N/A   Overcast
5:00 AM 26.1 °F - 12.9 °F 58% 30.16 in - Calm Calm - 0.00 in Snow Light Snow
5:57 AM 24.8 °F - 17.6 °F 74% 30.17 in - Calm Calm - 0.00 in Snow Snow
6:00 AM 24.1 °F - 18.0 °F 77% 30.17 in - Calm Calm - 0.00 in Snow Snow
6:36 AM 24.8 °F - 19.4 °F 80% 30.17 in - Calm Calm - 0.00 in Snow Light Snow
7:00 AM 24.1 °F - 21.0 °F 88% 30.17 in - Calm Calm - 0.00 in Snow Light Snow
7:07 AM 24.8 °F - 21.2 °F 86% 30.16 in - Calm Calm - 0.00 in Snow Snow
7:15 AM 24.8 °F - 21.2 °F 86% 30.16 in - Calm Calm - 0.00 in Snow Light Snow
7:45 AM 24.8 °F 17.9 °F 21.2 °F 86% 30.14 in - North 5.8 mph - 0.00 in   Overcast
8:00 AM 25.0 °F - 23.0 °F 92% 30.14 in - Calm Calm - 0.00 in   Overcast
9:00 AM 28.0 °F 21.7 °F 24.1 °F 85% 30.10 in - East 5.8 mph - N/A   Overcast
10:33 AM 30.2 °F 26.7 °F 28.4 °F 93% 30.06 in - ENE 3.5 mph - 0.00 in Rain Light Freezing Rain
10:43 AM 32.0 °F 27.5 °F 28.4 °F 87% 30.05 in - ENE 4.6 mph - 0.00 in Rain Rain
11:00 AM 32.0 °F 27.5 °F 30.0 °F 92% 30.03 in - ENE 4.6 mph - 0.00 in Rain Rain
11:10 AM 33.8 °F - 30.2 °F 87% 30.02 in - Calm Calm - 0.00 in   Overcast
11:33 AM 33.8 °F 30.8 °F 30.2 °F 87% 29.99 in - ENE 3.5 mph - 0.00 in   Overcast
11:47 AM 33.8 °F - 32.0 °F 93% 29.98 in - Calm Calm - 0.00 in   Overcast
12:00 PM 34.0 °F - 33.1 °F 96% 29.97 in - Calm Calm - 0.00 in   Overcast
12:22 PM 35.6 °F - 33.8 °F 93% 29.95 in - Calm Calm - 0.00 in Rain Light Rain
1:00 PM 37.0 °F 34.5 °F 35.1 °F 93% 29.93 in - Variable 3.5 mph - 0.00 in   Overcast
3:48 PM 33.8 °F 27.7 °F 30.2 °F 87% 29.94 in - WNW 6.9 mph - 0.00 in   Overcast
4:00 PM 32.0 °F 27.5 °F 30.9 °F 96% 29.94 in - WNW 4.6 mph - 0.00 in Rain Light Rain
4:43 PM 32.0 °F - 30.2 °F 93% 29.95 in - Calm Calm - 0.00 in   Overcast
5:00 PM 32.0 °F 28.7 °F 30.9 °F 96% 29.94 in - WNW 3.5 mph - 0.00 in   Overcast
6:00 PM 30.9 °F 25.2 °F 30.0 °F 96% 29.96 in - NNW 5.8 mph - N/A   Overcast
6:24 PM 30.2 °F 23.4 °F 28.4 °F 93% 29.96 in - Variable 6.9 mph - N/A   Overcast
7:00 PM 28.9 °F 22.8 °F 27.0 °F 92% 29.97 in - NW 5.8 mph - N/A   Overcast
10:16 PM 28.4 °F - 24.8 °F 86% 29.95 in - Calm Calm - N/A   Scattered Clouds